User: anonymous   Login
Location: Unspecified
(0.0000°N, 0.0000°E)
Time: 19:43:19
(UTC+00:00)
Language:

N. Korean satellite - Orbit

View from above orbital plane
View from above orbital plane
View from above satellite
View from above satellite

Ground track
Ground track

The orbit data is extracted from the following two-line orbital elements,

1 39026U 12072A   19287.93981234 +.00001442 +00000-0 +54202-4 0  9996
2 39026 097.2152 287.2973 0039094 042.9476 317.4805 15.28063291379591
Epoch (UTC): 14 October 2019 22:33:19
Eccentricity: 0.0039094
inclination: 97.2152°
perigee height: 455 km
apogee height: 508 km
right ascension of ascending node: 287.2973°
argument of perigee: 42.9476°
revolutions per day: 15.28063291
mean anomaly at epoch: 317.4805°
orbit number at epoch: 37959

The dashed part of the orbit path shows where the satellite is in the earth's shadow,  

DLR